[TLELIST] Archives

 

[TLELIST] Current TLEs

January 22nd 2023 PST

HST 1 20580U 90037B 23020.80541649 .00005930 00000-0 32879-3 0 9997 2 20580 28.4682 167.5682 0002094 219.0321 285.1045 15.11699734599391 ISS (ZARYA) 1 25544U 98067A 23022.35183955 .00022133 00000-0 39506-3 0 9995 2 25544 51.6439 330.8963 0004842 265.9630 198.7439 15.49965998379174 CXO 1 25867U 99040B 23022.52830453 .00000583 00000-0 00000-0 0 9995 2 25867 39.7079 214.4324 8996829 248.3888 0.4783 0.37811560 12632 ...Continue Reading

[TLELIST] Current TLEs

January 21st 2023 PST

HST 1 20580U 90037B 23020.80541649 .00005930 00000-0 32879-3 0 9997 2 20580 28.4682 167.5682 0002094 219.0321 285.1045 15.11699734599391 ISS (ZARYA) 1 25544U 98067A 23021.33036890 .00021570 00000-0 38588-3 0 9990 2 25544 51.6438 335.9588 0004886 262.1577 259.1849 15.49918676379010 CXO 1 25867U 99040B 23022.52830453 .00000583 00000-0 00000-0 0 9995 2 25867 39.7079 214.4324 8996829 248.3888 0.4783 0.37811560 12632 ...Continue Reading

[TLELIST] Current TLEs

January 20th 2023 PST

HST 1 20580U 90037B 23020.80541649 .00005930 00000-0 32879-3 0 9997 2 20580 28.4682 167.5682 0002094 219.0321 285.1045 15.11699734599391 ISS (ZARYA) 1 25544U 98067A 23021.06137310 .00020003 00000-0 35870-3 0 9990 2 25544 51.6431 337.2906 0004982 260.9499 198.4835 15.49902523378976 CXO 1 25867U 99040B 23022.52830453 .00000583 00000-0 00000-0 0 9995 2 25867 39.7079 214.4324 8996829 248.3888 0.4783 0.37811560 12632 ...Continue Reading

[list_settings.list_name] Current TLEs

January 13th 2023 PST

HST 1 20580U 90037B 23012.94755094 .00004645 00000-0 25591-3 0 9999 2 20580 28.4685 219.7260 0002560 133.0129 3.9986 15.11611498597934 ISS (ZARYA) 1 25544U 98067A 23013.27468750 .00014624 00000-0 26216-3 0 9995 2 25544 51.6444 15.8712 0004631 260.0076 277.1463 15.50166123377765 CXO 1 25867U 99040B 23014.59598306 .00000588 00000-0 00000-0 0 9996 2 25867 39.8745 215.3060 8995834 247.7589 0.2927 0.37817206 12604 ____________________________________________________________________ These 2-Line ...Continue Reading

[list_settings.list_name] Current TLEs

January 12th 2023 PST

HST 1 20580U 90037B 23011.86759502 .00004364 00000-0 23983-3 0 9998 2 20580 28.4686 226.8936 0002605 122.2631 246.1918 15.11602055597779 ISS (ZARYA) 1 25544U 98067A 23012.36472407 .00013987 00000-0 25136-3 0 9999 2 25544 51.6441 20.3801 0004680 255.7672 239.9330 15.50136457377620 CXO 1 25867U 99040B 23009.30764251 .00000506 00000-0 00000+0 0 9992 2 25867 40.0132 215.9977 8997220 247.2208 0.3727 0.37811008 23734 ____________________________________________________________________ These 2-Line ...Continue Reading

[list_settings.list_name] Current TLEs

January 11th 2023 PST

HST 1 20580U 90037B 23010.04517234 .00003683 00000-0 20088-3 0 9997 2 20580 28.4687 238.9891 0002658 104.2598 47.3508 15.11586944597497 ISS (ZARYA) 1 25544U 98067A 23011.38710730 .00013448 00000-0 24225-3 0 9994 2 25544 51.6446 25.2221 0004801 247.9459 188.6154 15.50106114377470 CXO 1 25867U 99040B 22361.08391056 .00000433 00000-0 00000+0 0 9995 2 25867 40.2916 217.4442 8982858 246.0806 0.2293 0.37809815 23686 ____________________________________________________________________ These 2-Line ...Continue Reading

[list_settings.list_name] Current TLEs

January 10th 2023 PST

HST 1 20580U 90037B 23010.04439150 .00003740 00000-0 20416-3 0 9996 2 20580 28.4687 238.9943 0002659 104.2518 43.1007 15.11586983597769 ISS (ZARYA) 1 25544U 98067A 23010.36490804 .00012873 00000-0 23250-3 0 9996 2 25544 51.6447 30.2879 0004852 244.3468 244.2313 15.50075686377311 CXO 1 25867U 99040B 22361.08391056 .00000433 00000-0 00000+0 0 9995 2 25867 40.2916 217.4442 8982858 246.0806 0.2293 0.37809815 23686 ____________________________________________________________________ These 2-Line ...Continue Reading

[list_settings.list_name] Current TLEs

January 9th 2023 PST

HST 1 20580U 90037B 23008.91392880 .00004153 00000-0 22787-3 0 9999 2 20580 28.4688 246.4965 0002657 93.6202 9.8791 15.11579757597329 ISS (ZARYA) 1 25544U 98067A 23009.39855270 .00013098 00000-0 23662-3 0 9996 2 25544 51.6455 35.0759 0004912 240.6524 251.8836 15.50050766377168 CXO 1 25867U 99040B 22350.50688168 .00000592 00000-0 00000-0 0 9990 2 25867 40.5464 218.6105 8981371 245.2549 0.0091 0.37815769 12485 ____________________________________________________________________ These 2-Line ...Continue Reading

[list_settings.list_name] Current TLEs

January 8th 2023 PST

HST 1 20580U 90037B 23007.85272347 .00004272 00000-0 23476-3 0 9994 2 20580 28.4692 253.5396 0002653 83.0180 354.2819 15.11571624597160 ISS (ZARYA) 1 25544U 98067A 23008.37769676 .00013860 00000-0 25009-3 0 9991 2 25544 51.6451 40.1299 0006028 230.0540 322.2255 15.50025110377007 CXO 1 25867U 99040B 22350.50688168 .00000592 00000-0 00000-0 0 9990 2 25867 40.5464 218.6105 8981371 245.2549 0.0091 0.37815769 12485 ____________________________________________________________________ These 2-Line ...Continue Reading

[list_settings.list_name] Current TLEs

January 7th 2023 PST

HST 1 20580U 90037B 23007.07198490 .00003975 00000-0 21779-3 0 9997 2 20580 28.4695 258.7212 0002662 75.0314 65.3280 15.11564672597311 ISS (ZARYA) 1 25544U 98067A 23007.41519676 .00014972 00000-0 26974-3 0 9995 2 25544 51.6452 44.9004 0005023 232.2480 345.6878 15.50001363376851 CXO 1 25867U 99040B 22350.50688168 .00000592 00000-0 00000-0 0 9990 2 25867 40.5464 218.6105 8981371 245.2549 0.0091 0.37815769 12485 ____________________________________________________________________ These 2-Line ...Continue Reading
  • This mailing list is a public mailing list - anyone may join or leave, at any time.
  • This mailing list is announce-only.

International Space Station (ISS) / Hubble Space Telescope (HST) / Chandra X-Ray Observatory Orbital Data via EMAIL

Privacy Policy:

Private list